Theta_e
339 337 337 337 336 334 335 337 339 337 339 340 341 341 340 341 339 337 336 336 338 338 340 341 341 340 338 335 331 336 334 336 334 332 338 340 342 341 339 339 339 340 342
338 337 337 337 338 335 336 337 338 338 339 340 341 341 341 340 337 337 339 340 338 336 336 339 339 338 335 333 325 335 333 332 335 336 331 336 339 339 338 337 337 337 339
338 337 337 336 337 337 337 334 333 333 334 335 335 337 339 338 339 339 340 340 339 337 335 333 335 329 331 321 320 325 335 332 335 338 339 329 334 337 337 335 336 340 340
335 335 335 335 335 335 336 335 335 335 335 334 333 332 334 338 337 335 339 340 335 333 332 326 324 323 321 321 319 319 318 332 332 334 337 337 334 335 335 335 339 339 339
331 331 331 331 332 333 333 334 334 334 335 336 336 336 336 333 336 335 336 337 337 330 329 329 325 324 322 321 319 320 318 330 333 334 335 338 336 336 335 339 338 338 336
323 324 329 331 326 329 330 332 332 333 333 334 335 336 336 335 334 332 335 335 336 335 332 329 328 326 327 327 325 321 321 330 332 333 333 334 338 335 339 331 333 336 331
317 318 322 330 331 326 318 323 329 332 333 333 333 333 334 334 334 334 333 333 334 334 334 332 329 328 327 329 329 329 328 323 329 330 332 333 337 336 338 332 331 334 332
314 316 318 319 319 321 319 320 317 315 316 319 325 328 332 332 332 332 333 333 333 333 332 332 332 330 328 328 329 330 329 326 328 330 330 329 331 337 339 334 334 336 335
311 313 314 315 318 319 319 319 321 319 318 318 318 317 316 321 332 333 332 332 332 333 333 333 331 331 331 329 327 326 328 328 329 330 330 331 332 335 337 332 334 336 333
308 308 309 312 314 318 319 319 320 321 321 319 319 319 319 319 324 333 334 335 333 333 332 332 333 331 331 331 330 325 320 326 327 328 332 332 335 334 334 334 330 334 333
303 303 306 308 312 316 319 320 320 319 320 319 319 319 318 319 319 321 321 321 321 323 329 331 331 332 332 331 331 330 325 317 325 329 330 332 333 332 329 330 334 329 333
297 298 303 306 309 313 318 319 319 320 320 320 320 319 319 319 320 321 321 324 324 326 328 331 332 331 332 332 332 334 333 327 317 327 327 329 331 333 332 332 331 332 334
295 296 299 303 307 311 313 316 318 319 320 320 320 320 319 319 320 321 321 321 321 325 325 327 332 332 333 334 334 335 334 329 318 325 324 327 329 331 331 330 333 332 333
294 293 296 299 305 308 309 309 311 312 312 313 315 317 318 319 319 320 320 320 320 320 322 325 326 329 331 332 332 334 333 334 327 324 323 322 325 325 325 327 332 333 330
292 292 293 295 298 300 304 305 306 306 306 307 309 310 311 313 315 318 319 319 320 319 320 321 324 324 327 331 332 332 332 332 333 326 326 322 322 323 322 323 332 334 330
291 290 290 291 293 294 296 300 299 301 302 303 304 305 306 306 307 311 315 316 318 318 319 319 320 321 323 325 329 332 332 332 332 332 326 326 324 321 321 323 332 334 334
289 289 289 289 290 290 291 293 295 294 297 295 292 295 296 295 298 304 307 310 312 315 317 319 319 319 320 323 323 323 329 331 331 332 332 331 328 328 326 320 329 334 332
289 288 288 288 288 289 289 289 290 291 291 292 292 290 291 291 291 292 296 299 304 310 312 315 316 317 318 320 321 322 323 323 325 328 331 332 332 330 329 329 321 329 333
288 288 288 288 288 288 288 288 288 288 289 290 291 288 289 289 289 290 291 291 292 298 305 308 311 312 314 316 318 320 321 322 325 326 325 326 330 331 331 330 329 324 327
288 288 287 287 287 287 288 288 288 288 287 288 289 287 287 288 288 288 289 290 291 291 292 296 303 309 312 313 314 316 319 320 321 321 323 325 323 325 330 331 330 329 325
288 287 287 287 286 286 286 286 286 286 286 286 286 286 286 286 286 287 288 289 289 290 290 291 293 298 306 311 314 315 315 316 318 319 319 319 322 323 321 328 331 330 329
287 287 286 286 286 285 285 285 284 285 285 285 285 285 285 285 285 286 287 288 288 288 289 290 291 294 297 306 310 313 314 316 317 317 317 318 319 320 323 322 324 331 331
287 286 286 285 285 285 284 284 284 284 284 284 284 284 284 284 284 285 285 285 285 286 288 289 289 293 293 293 300 308 315 315 315 317 317 317 318 319 320 323 324 326 330
286 286 285 285 285 284 284 283 283 283 283 283 283 283 283 283 283 284 284 285 285 285 286 287 288 289 291 295 296 303 305 307 314 314 315 316 318 319 321 322 324 322 325
286 285 285 284 284 283 283 283 283 283 283 282 282 283 283 283 283 283 284 284 284 284 285 285 286 287 288 289 292 294 296 302 306 312 314 313 314 315 316 317 321 322 323
285 284 284 283 283 283 282 282 282 282 282 282 282 282 282 282 282 282 283 283 284 284 284 284 285 285 286 287 288 290 292 295 303 306 310 312 314 314 314 313 315 320 321
Wind_Speed
13 13 13 13 14 14 14 14 13 13 12 12 13 13 13 12 12 11 11 11 12 12 11 12 12 12 12 12 10 12 11 13 14 13 13 14 16 13 13 14 16 18 18
17 15 13 14 14 14 14 12 12 13 13 13 13 12 12 10 10 10 10 11 11 11 11 10 10 9 10 11 10 10 11 12 12 13 12 10 12 9 11 13 15 16 16
22 18 16 15 14 13 13 13 12 12 11 10 10 10 11 10 10 10 9 9 10 10 10 10 9 9 9 9 10 9 9 9 10 9 8 8 9 9 11 11 13 13 14
25 22 20 16 15 13 12 11 11 9 9 9 9 9 9 10 9 9 7 7 8 8 8 8 8 8 8 8 9 9 7 7 6 7 2 4 8 8 6 8 10 11 12
31 27 21 18 17 15 13 12 11 10 9 8 8 7 7 7 6 6 6 5 4 6 6 7 7 7 7 7 8 8 8 9 7 8 8 5 6 6 8 8 9 9 10
26 25 24 22 21 16 13 12 11 10 9 8 7 6 6 5 5 4 4 3 2 2 4 4 4 4 4 5 6 8 7 6 6 6 4 3 2 8 8 8 10 8 8
24 22 22 21 21 21 20 14 12 10 9 8 7 6 6 5 4 4 4 3 2 2 2 2 1 1 2 2 2 3 4 3 3 3 0 4 0 8 9 8 7 7 8
22 20 19 18 18 18 18 20 16 14 12 11 10 9 7 6 5 5 5 3 3 3 3 3 3 3 2 1 2 2 1 1 1 1 2 3 2 6 8 7 7 6 8
23 21 19 16 14 17 18 18 13 16 15 15 14 14 11 8 6 7 6 6 6 6 6 6 6 5 5 5 4 5 4 2 3 4 3 4 2 6 7 6 6 6 6
25 24 22 19 16 13 14 16 20 13 15 13 11 16 16 12 7 5 6 7 9 9 10 8 8 8 8 8 7 7 7 6 7 4 4 5 4 7 8 5 7 7 5
26 27 24 23 20 16 16 16 18 19 20 19 17 13 12 16 12 8 11 11 12 11 10 10 10 10 9 9 9 8 8 8 9 6 6 10 7 5 8 9 9 9 8
30 28 26 24 23 20 17 16 18 18 19 21 16 13 11 13 15 13 11 9 8 11 11 11 9 10 12 12 11 11 9 8 11 10 7 10 10 8 8 12 12 12 12
25 27 27 25 25 24 23 20 21 22 21 21 20 14 11 11 13 12 13 15 16 12 11 13 10 10 10 11 11 11 10 9 8 9 8 11 13 12 12 12 13 16 17
27 27 27 26 25 25 23 25 24 26 24 24 22 19 17 17 17 15 16 17 19 17 14 12 8 10 12 11 13 15 16 14 13 13 13 9 12 12 13 13 14 19 19
26 26 27 27 26 25 24 23 26 27 25 20 22 24 23 20 19 18 17 17 18 18 17 15 11 9 9 11 12 13 15 17 16 18 16 18 14 15 15 15 13 17 19
24 27 26 28 26 25 25 24 27 27 22 22 22 21 19 21 21 19 17 18 19 19 17 16 14 16 15 16 15 12 13 15 15 15 18 16 17 18 17 17 16 16 19
23 24 27 29 28 28 28 26 25 25 23 25 25 23 24 24 24 21 20 20 20 19 18 16 14 14 15 16 16 16 17 16 16 17 15 15 20 17 17 19 20 19 19
21 24 25 26 28 28 27 27 25 22 24 23 24 27 26 26 27 25 23 23 23 20 19 19 20 21 20 17 17 18 19 17 18 21 20 17 16 20 21 18 21 23 23
20 22 25 26 28 28 27 26 26 25 25 22 22 28 26 27 28 27 26 26 24 22 21 21 21 21 23 22 22 19 18 18 18 18 19 22 24 22 20 23 22 25 27
18 20 22 25 26 28 28 28 28 28 26 25 22 27 26 27 28 27 28 28 27 26 24 24 24 21 20 22 25 25 21 20 21 22 22 23 22 25 25 24 25 25 27
18 20 23 25 26 28 31 33 32 33 28 28 27 27 27 28 28 28 26 27 29 28 27 25 25 26 24 21 22 22 24 26 24 26 26 29 30 27 25 27 27 28 27
15 17 20 22 23 25 26 26 25 27 26 25 29 30 29 30 30 26 24 26 26 28 28 28 26 26 23 15 12 17 4 11 17 21 26 29 30 31 30 27 27 31 30
15 17 19 20 22 24 25 27 28 28 28 25 32 32 33 31 30 28 27 26 26 24 25 24 25 20 20 30 18 9 4 3 9 12 15 23 22 29 30 27 24 27 31
11 14 17 19 20 24 26 27 28 27 24 28 32 34 35 32 30 29 29 27 28 26 24 24 20 24 20 19 25 13 20 16 4 6 15 17 16 14 17 23 27 25 27
12 15 17 18 23 25 26 25 25 26 27 28 28 28 28 28 27 27 27 29 28 28 27 25 23 22 22 20 20 23 22 21 21 9 10 12 24 31 29 22 21 23 24
12 15 18 19 22 24 23 24 23 24 26 26 27 27 25 26 25 25 26 26 26 28 28 26 26 25 24 22 21 23 23 14 16 13 5 11 16 27 30 36 33 26 24
Wind_Direction
86 86 84 79 82 76 81 85 81 80 83 80 77 76 76 74 73 72 69 69 71 73 73 70 74 70 61 58 73 81 84 86 88 90 100 101 92 93 101 112 116 113 110
93 84 82 83 80 79 81 80 75 79 80 77 72 71 72 62 61 63 68 75 76 75 74 77 77 69 64 65 71 91 88 89 88 84 86 105 101 102 109 109 111 109 110
83 80 74 72 73 70 67 69 67 68 69 70 69 65 64 59 61 65 68 70 72 72 71 71 70 73 73 69 72 88 100 97 94 83 72 103 113 95 110 112 111 112 110
76 70 67 66 66 65 61 62 65 67 69 71 71 73 74 73 64 65 65 74 64 60 59 63 66 72 75 76 74 76 97 114 75 39 84 129 130 126 129 107 108 112 115
64 59 55 57 60 63 62 58 57 55 54 53 56 60 61 71 76 70 74 75 69 58 49 48 57 62 73 74 74 76 91 116 67 53 81 88 155 146 133 123 122 123 132
64 62 61 55 52 52 53 56 55 53 51 48 48 46 43 43 45 42 38 44 72 66 65 61 57 58 56 63 68 76 98 108 86 68 24 9 176 169 149 135 139 140 140
60 65 65 64 54 45 40 41 43 43 41 36 32 25 27 22 17 11 19 27 29 3 357 13 24 72 77 42 45 55 76 136 71 92 325 340 265 180 148 157 155 156 155
52 54 56 60 56 49 44 32 37 38 36 30 23 16 12 8 2 349 343 333 324 316 305 295 284 279 276 248 259 277 352 73 152 27 169 322 1 172 154 167 164 181 169
48 48 46 47 54 51 55 36 37 31 30 33 37 28 19 5 7 1 349 326 318 305 296 291 283 267 263 273 267 257 250 238 243 146 218 268 289 202 168 185 183 184 179
40 40 38 39 42 43 48 43 37 26 11 4 1 20 18 14 5 359 339 340 330 315 303 287 279 276 267 267 271 274 260 234 229 259 213 251 250 221 192 211 204 190 197
37 34 35 37 37 43 44 45 49 45 41 41 35 30 25 26 13 18 344 335 328 323 308 299 289 278 275 271 272 273 272 256 227 197 268 243 245 230 221 238 227 210 194
32 32 35 39 38 41 43 40 42 44 47 44 31 25 15 22 31 28 13 314 335 341 325 318 293 290 281 277 276 265 271 273 240 231 272 226 244 256 243 248 239 225 208
39 37 36 40 46 45 44 37 41 42 43 40 36 28 13 15 16 21 21 22 10 350 336 331 293 302 299 287 273 271 273 267 234 246 255 233 234 252 258 252 246 232 212
43 39 38 43 49 49 49 43 42 40 36 37 35 30 20 14 13 13 12 13 11 5 1 347 330 306 310 299 285 273 269 263 243 243 249 237 236 241 256 247 250 214 216
45 41 41 45 49 47 49 47 46 42 38 32 25 24 14 12 7 3 7 9 8 4 2 353 338 308 318 310 300 288 279 264 256 240 247 242 242 241 245 240 233 215 216
46 44 45 46 50 51 50 50 47 44 35 29 23 21 16 14 11 4 2 3 2 3 356 350 345 339 323 313 306 295 281 275 261 252 242 244 249 248 246 235 227 220 219
49 48 46 46 47 49 49 48 46 41 37 32 27 24 20 16 12 8 5 357 353 355 353 344 338 330 333 323 317 294 286 280 269 252 251 251 244 243 241 232 230 224 223
49 46 45 44 43 43 43 42 41 38 36 27 20 19 15 10 9 7 2 358 351 346 344 343 343 339 338 336 326 310 300 299 280 271 259 248 245 245 241 239 233 231 226
47 42 41 38 35 32 31 30 29 29 27 23 14 8 6 1 2 1 358 354 351 345 345 341 330 336 332 327 328 319 305 300 283 284 276 267 254 246 242 239 250 241 234
45 41 37 33 28 24 20 17 15 15 13 12 6 0 359 354 355 354 351 348 347 344 342 339 336 326 323 325 324 315 308 294 289 281 276 272 270 258 250 244 243 245 242
39 34 29 24 21 17 15 10 4 0 359 359 353 353 354 349 350 347 346 344 341 341 336 337 336 330 327 321 325 318 305 295 283 279 274 268 263 264 258 252 246 243 243
36 30 24 20 15 13 9 4 359 353 347 348 346 346 347 345 343 343 339 332 334 335 332 331 335 335 322 328 323 315 293 299 281 272 267 266 266 261 260 262 253 247 241
30 22 16 12 6 4 359 354 351 348 343 342 341 338 338 338 337 336 331 326 325 325 327 326 325 329 322 315 312 296 306 267 338 293 298 302 297 263 257 258 252 255 252
31 13 8 5 359 354 352 351 349 345 337 329 329 329 329 331 331 328 326 323 323 319 314 312 314 313 316 310 316 294 303 303 297 292 285 290 291 286 268 258 249 261 257
16 6 359 353 348 346 345 345 340 334 326 322 319 316 316 319 318 319 318 313 312 311 309 308 306 302 303 298 296 302 304 299 295 282 279 276 277 275 274 272 267 262 255
2 355 349 344 340 340 339 336 331 324 320 316 314 313 313 311 308 305 303 301 301 300 299 298 299 297 294 290 286 285 284 281 289 295 302 290 266 270 272 274 267 263 260